Elwood, KS

8:14 AM CST on January 22, 2017 (GMT -0600)
Rosecrans Memorial

Weather History for KSTJ - October, 2011

Change the Weather History Date:

Thursday, October 13, 2011

  Actual Average Record
Temperature  
Mean Temperature 61 °F 56 °F  
Max Temperature 75 °F 68 °F 90 °F (1975)
Min Temperature 47 °F 44 °F 24 °F (2006)
Degree Days  
Heating Degree Days 4 10  
Month to date heating degree days 30 105  
Since 1 July heating degree days 83 185  
Cooling Degree Days 0 1  
Month to date cooling degree days 32 18  
Year to date cooling degree days 491 1217  
Growing Degree Days 12 (Base 50)    
Moisture  
Dew Point 43 °F    
Average Humidity 55    
Maximum Humidity 86    
Minimum Humidity 23    
Precipitation  
Precipitation 0.00 in 0.10 in 1.94 in (1981)
Month to date precipitation 0.10 1.20  
Year to date precipitation 13.93 30.92  
Sea Level Pressure  
Sea Level Pressure 29.80 in    
Wind  
Wind Speed 8 mph (WNW)    
Max Wind Speed 25 mph    
Max Gust Speed 33 mph    
Visibility 10 miles    
Events      
T = Trace of Precipitation, MM = Missing Value Source: NWS Daily Summary

Daily Weather History Graph

Daily Weather History Graph

Search for Another Location

Airport or City:

Trip Planner

Search our weather history database for the weather conditions in past years. The results will help you decide how hot, cold, wet, or windy it might be!

Date:

Astronomy

Oct. 13, 2011 Rise Set
Actual Time 7:27 AM CDT 6:43 PM CDT
Civil Twilight 7:00 AM CDT 7:10 PM CDT
Nautical Twilight 6:29 AM CDT 7:41 PM CDT
Astronomical Twilight 5:57 AM CDT 8:13 PM CDT
Moon 7:20 PM CDT (10/13) 8:59 AM CDT (10/13)
Length of Visible Light 12h 10m
Length of Day
11h 16m
Full, 98% of the Moon is Illuminated
Oct 13
Full
Oct 19
Last Quarter
Oct 26
New
Nov 2
First Quarter
Nov 10
Full

Hourly Weather History & Observations

Time (CDT) Temp. Dew Point Humidity Pressure Visibility Wind Dir Wind Speed Gust Speed Precip Events Conditions
12:53 AM 55.0 °F 51.1 °F 86% 29.76 in 10.0 mi WNW 4.6 mph - N/A   Clear
1:53 AM 53.1 °F 48.0 °F 83% 29.77 in 10.0 mi NW 3.5 mph - N/A   Clear
2:53 AM 53.1 °F 46.9 °F 80% 29.77 in 10.0 mi Calm Calm - N/A   Clear
3:53 AM 55.0 °F 46.9 °F 74% 29.77 in 10.0 mi WNW 6.9 mph - N/A   Clear
4:53 AM 52.0 °F 45.0 °F 77% 29.78 in 10.0 mi NW 3.5 mph - N/A   Clear
5:53 AM 51.1 °F 44.1 °F 77% 29.79 in 10.0 mi Calm Calm - N/A   Clear
6:53 AM 51.1 °F 44.1 °F 77% 29.80 in 10.0 mi Calm Calm - N/A   Clear
7:53 AM 48.2 °F 44.6 °F 87% 29.83 in 10.0 mi WNW 6.9 mph - N/A   Clear
8:53 AM 53.6 °F 44.6 °F 72% 29.84 in 10.0 mi Calm Calm - N/A   Clear
9:53 AM 59.0 °F 46.0 °F 62% 29.84 in 10.0 mi NW 8.1 mph 17.3 mph N/A   Clear
10:53 AM 64.9 °F 46.9 °F 52% 29.85 in 10.0 mi WNW 10.4 mph - N/A   Clear
11:53 AM 68.0 °F 46.0 °F 45% 29.84 in 10.0 mi WNW 13.8 mph 19.6 mph N/A   Clear
12:53 PM 71.1 °F 42.1 °F 35% 29.83 in 10.0 mi NW 19.6 mph 25.3 mph N/A   Clear
1:53 PM 73.0 °F 37.0 °F 27% 29.81 in 10.0 mi NW 20.7 mph 31.1 mph N/A   Clear
2:53 PM 73.9 °F 34.0 °F 23% 29.78 in 10.0 mi NNW 20.7 mph 29.9 mph N/A   Clear
3:53 PM 75.0 °F 37.0 °F 25% 29.78 in 10.0 mi NW 16.1 mph 24.2 mph N/A   Clear
4:53 PM 73.0 °F 36.0 °F 26% 29.77 in 10.0 mi NW 17.3 mph 25.3 mph N/A   Clear
5:53 PM 72.0 °F 36.0 °F 27% 29.77 in 10.0 mi NW 12.7 mph - N/A   Clear
6:53 PM 61.0 °F 37.9 °F 42% 29.78 in 10.0 mi WNW 5.8 mph - N/A   Clear
7:53 PM 55.9 °F 43.0 °F 62% 29.79 in 10.0 mi West 5.8 mph - N/A   Clear
8:53 PM 53.1 °F 41.0 °F 64% 29.80 in 10.0 mi West 3.5 mph - N/A   Clear
9:53 PM 53.1 °F 43.0 °F 69% 29.81 in 10.0 mi Calm Calm - N/A   Clear
10:53 PM 55.0 °F 37.9 °F 53% 29.82 in 10.0 mi Calm Calm - N/A   Clear
11:53 PM 50.0 °F 42.1 °F 74% 29.83 in 10.0 mi South 3.5 mph - N/A   Clear